Regional Weather Roundup
Issued by NWS

Home | Current Version | Previous Version | Text Only | Print | Product List | Glossary Off
Versions: 1 2 3 4 5 6 7 8 9 10 11 12 13 14 15 16 17 18 19 20 21 22 23 24 25 26 27 28 29 30 31 32 33 34 35 36 37 38 39 40 41 42 43 44 45 46 47 48 49 50

000
ASUS43 KLMK 270002
RWRKY
KENTUCKY REGIONAL WEATHER ROUNDUP
NATIONAL WEATHER SERVICE LOUISVILLE KY
800 PM EDT MON SEP 26 2016

NOTE "FAIR" INDICATES FEW OR NO CLOUDS BELOW 12,000 FEET
WITH NO SIGNIFICANT WEATHER AND/OR OBSTRUCTIONS TO VISIBILITY.

KYZ001>023-026-027-061>063-070>075-270100-
WESTERN AND SOUTH CENTRAL KENTUCKY

CITY           SKY/WX    TMP DP  RH WIND       PRES   REMARKS
PADUCAH        CLEAR     65  51  60 CALM      30.07S
HENDERSON      CLEAR     63  48  59 SW3       30.06S
OWENSBORO      NOT AVBL
HOPKINSVILLE   PTCLDY    63  54  71 NW5       30.08R
BOWLING GREEN  CLEAR     65  54  67 CALM      30.08R
GLASGOW        CLOUDY    61  61 100 CALM      30.08S
$$

KYZ024-025-028>034-038-045-046-053-270100-
NORTH CENTRAL KENTUCKY

CITY           SKY/WX    TMP DP  RH WIND       PRES   REMARKS
LOUISVILLE/SDF PTCLDY    65  48  54 NW6       30.06R
LOUISVILLE/LOU PTCLDY    65  49  56 W3        30.07R
FORT KNOX      PTCLDY    58  55  90 W1        30.06R
$$

KYZ035>037-039>044-047>052-055>060-089>105-270100-
NORTHEAST KENTUCKY

CITY           SKY/WX    TMP DP  RH WIND       PRES   REMARKS
LEXINGTON      PTCLDY    61  53  75 NW3       30.07R
COVINGTON      CLOUDY    61  51  70 SW3       30.04R
FRANKFORT      CLOUDY    61  52  72 W3        30.06R
$$

KYZ054-064>069-076>088-106>120-270100-
SOUTHEAST KENTUCKY

CITY           SKY/WX    TMP DP  RH WIND       PRES   REMARKS
JACKSON        CLOUDY    65  60  84 VRB5      30.06R
LONDON         CLOUDY    68  60  75 N6        30.06R
SOMERSET       PTCLDY    63  59  88 NW5       30.08S
MIDDLESBORO    CLOUDY    73  67  80 CALM      30.05R
MONTICELLO     CLOUDY    65  61  87 VRB7      30.09R
$$




USA.gov is the U.S. government's official web portal to all federal, state and local government web resources and services.